Location: Demre
(36.2444°N, 29.9850°E)
Time: 11:32:34
(UTC+00:00)

CZ-4C R/B - Pass Details

Date: 11 March 2026
Orbit: 478 x 1499 km, 63.4° (Epoch: 11 April)

Event Time Altitude Azimuth Distance (km) Brightness Sun altitude
Rises 16:43:41 0° 334° (NNW) 3,781 6.0 -8.9°
Reaches altitude 10° 16:46:16 10° 341° (NNW) 2,970 5.3 -9.4°
Maximum altitude 16:53:12 44° 52° (NE) 1,731 3.5 -10.8°
Enters shadow 17:01:22 11° 121° (ESE) 3,513 4.8 -12.4°
